Regional Weather Roundup
Issued by NWS Kansas City/Pleasant Hill, MO

Home | Current Version | Previous Version | Text Only | Print | Product List | Glossary On
Versions: 1 2 3 4 5 6 7 8 9 10 11 12 13 14 15 16 17 18 19 20 21 22 23 24 25 26 27 28 29 30 31 32 33 34 35 36 37 38 39 40 41 42 43 44 45 46 47 48 49 50
000
ASUS43 KEAX 281110
RWREAX

WEATHER ROUNDUP FOR EASTERN KANSAS AND NORTHWEST MISSOURI
NATIONAL WEATHER SERVICE KANSAS CITY/PLEASANT HILL MO
600 AM CDT SUN MAY 28 2017

KSZ040-057-103>105-MOZ028-029-037-043-281200-
...KANSAS CITY METROPOLITAN AREA...

CITY           SKY/WX    TMP DP  RH WIND       PRES   REMARKS
K.C. INTL      CLEAR     58  57  97 NW7       29.88R
K.C. DOWNTOWN  CLEAR     60  58  92 CALM      29.87R
LEES SUMMIT    CLOUDY    59  59 100 N8        29.88R
OLATHE - IXD   CLEAR     59  57  93 NW12      29.89R
OLATHE - OJC   CLEAR     58  58 100 N5        29.88R
LAWRENCE       CLEAR     57  56  96 NW5       29.89R

$$

MOZ001>008-011>017-020>025-030>033-038>040-044>046-053-054-281200-
...NORTHERN AND CENTRAL MISSOURI...

CITY           SKY/WX    TMP DP  RH WIND       PRES   REMARKS
ST. JOSEPH     CLEAR     57  57 100 NW5       29.89R
MOSBY          SUNNY     59  57  94 CALM      29.87R
WARRENSBURG    CLOUDY    59  55  88 NW5       29.85R
WHITEMAN AFB   CLOUDY    60  60 100 N10       29.84R
CLINTON        MOCLDY    61  61 100 N8        29.84R
SEDALIA        CLOUDY    63  63 100 NW12      29.84S
WARSAW         NOT AVBL
CHILLICOTHE      N/A     57  55  93 W3        29.86R
KIRKSVILLE     CLOUDY    57  55  93 NW9       29.83R

$$

MOZ041-047>049-056>058-063>065-088>090-097-281200-
...EASTERN AND SOUTHERN MISSOURI...

CITY           SKY/WX    TMP DP  RH WIND       PRES   REMARKS
ST. LOUIS INTL CLOUDY    64  60  87 SW5       29.75F
SPIRIT OF STL  CLOUDY    61  60  97 W3        29.75F
COLUMBIA       FOG       61  61 100 NW10      29.80R VSB 1/4
JEFFERSON CITY CLOUDY    63  60  90 NW7       29.80R
ROLLA          FOG       58  58 100 SW9       29.82R VSB 1/4
OSAGE BEACH    CLOUDY    61  61 100 CALM      29.82R FOG
SPRINGFIELD    CLOUDY    62  61  96 NW3       29.86R
BRANSON        CLOUDY    64  64 100 CALM      29.86R
JOPLIN         CLOUDY    64  62  93 N7        29.87R
WEST PLAINS    CLOUDY    63  61  93 S7        29.88R

$$

IAZ060-094-KSZ022-034>040-054-083-096-NEZ052-066-093-281200-
...KANSAS...SOUTHEAST NEBRASKA AND IOWA...

CITY           SKY/WX    TMP DP  RH WIND       PRES   REMARKS
TOPEKA         CLEAR     59  58  96 W6        29.90R
MANHATTAN      CLEAR     57  54  89 CALM      29.93S
EMPORIA        CLEAR     59  58  96 NW5       29.92R
CHANUTE        CLEAR     62  58  86 N7        29.90R
WICHITA        PTCLDY    61  55  81 N13       29.95R
OMAHA          PTCLDY    55  50  83 VRB3      29.88S
LINCOLN        CLEAR     53  50  89 CALM      29.93S
FALLS CITY     CLEAR     56  53  90 NW7       29.89S
LAMONI         CLEAR     55  54  96 NW6       29.85S
DES MOINES     PTCLDY    57  54  89 NW6       29.82F

$$




USA.gov is the U.S. government's official web portal to all federal, state and local government web resources and services.